Wind_Speed
11 12 13 14 14 14 14 13 13 12 11 11 11 12 13 15 17 18 17 16 14 13 12 12 12 13 14 14 13 14 15 16 18 20 21 21 22 23 24 25 27 30 32 34 35 36 37 38 40 40 41 42 43 44 44 44 44 45 46 47 49 50 50 50 50 50 50 49 49
11 13 14 15 15 15 14 13 13 12 12 12 12 12 13 14 16 17 18 18 18 17 16 17 16 15 14 13 12 11 11 12 14 15 16 18 19 21 22 24 25 27 29 31 33 35 37 38 38 39 40 41 42 43 44 45 45 45 46 47 49 49 50 50 51 51 52 51 50
5 8 11 13 13 13 13 12 12 13 13 13 13 13 13 13 14 15 16 18 20 20 20 21 19 16 13 12 12 12 13 14 15 16 18 19 21 23 25 26 27 28 29 30 31 33 35 37 38 39 39 40 40 41 43 44 45 46 47 48 48 48 48 49 51 52 53 52 52
6 6 8 9 10 11 11 10 11 12 13 13 13 13 12 12 13 14 16 18 20 21 21 20 18 15 13 13 14 15 16 17 18 19 20 21 22 23 24 24 25 26 27 28 29 31 33 35 37 38 39 40 40 41 42 43 45 46 47 48 49 49 50 50 51 52 54 54 54
10 10 9 9 10 11 10 10 10 10 11 12 12 11 11 12 13 14 15 16 17 18 17 16 15 14 15 16 17 18 19 19 19 19 20 21 22 22 21 20 19 19 21 23 25 27 29 32 35 38 39 40 41 41 42 42 43 45 46 47 49 50 51 52 52 53 54 56 56
14 14 13 13 13 13 12 11 9 9 10 11 11 10 10 11 11 10 9 9 12 14 13 12 13 15 17 18 20 21 21 21 20 20 21 21 21 21 20 18 17 16 16 17 18 20 23 26 30 34 37 40 42 43 43 43 44 45 46 48 49 51 52 54 54 55 55 56 56
19 18 17 16 15 16 16 15 13 10 9 8 8 7 6 6 6 6 5 5 7 9 9 9 11 13 15 17 18 19 20 20 20 21 22 22 22 21 20 18 16 16 15 15 15 15 17 20 23 28 33 38 42 44 45 46 47 47 48 50 51 52 53 55 56 56 57 57 55
26 25 24 23 21 21 21 20 18 15 12 12 12 12 13 14 14 14 12 9 7 5 3 3 5 7 9 11 12 15 17 18 19 20 21 21 21 21 20 18 16 15 14 14 13 13 14 15 17 21 27 31 36 39 42 44 46 48 49 51 52 54 55 55 56 56 57 56 55
32 32 31 30 29 28 28 26 24 21 20 19 20 21 23 24 24 23 21 20 19 17 14 11 8 5 3 2 4 8 12 15 16 17 18 19 19 19 19 19 17 16 15 14 13 13 14 15 16 17 18 20 23 26 30 34 38 41 44 47 49 51 53 53 53 53 53 53 53
34 34 34 33 33 32 31 30 29 27 26 25 25 25 26 27 27 26 26 25 24 23 22 20 18 16 15 12 9 6 3 4 5 7 10 12 15 17 18 18 18 18 17 16 15 15 15 16 16 16 17 16 15 16 18 22 25 29 33 37 40 43 45 46 46 47 47 48 49
34 34 35 35 34 33 32 32 31 30 29 29 30 30 29 29 28 27 26 25 25 25 24 22 21 21 21 20 18 17 15 13 11 9 6 5 6 8 11 14 15 16 16 17 18 18 17 16 17 17 17 16 15 14 14 15 17 18 22 26 29 32 35 37 39 41 42 43 44
33 34 34 35 35 34 34 33 32 32 31 31 31 32 32 31 30 29 28 27 27 26 25 23 22 22 21 21 20 19 19 18 18 17 15 14 11 8 5 5 6 8 10 13 15 16 17 17 17 17 17 16 15 15 15 15 15 16 17 18 21 23 26 28 31 34 38 40 41
31 32 33 33 34 34 34 34 33 33 32 32 32 32 31 31 30 30 30 29 29 28 27 26 25 24 23 22 21 20 19 18 18 18 18 18 17 16 14 12 10 8 6 5 5 7 10 12 13 14 14 14 14 14 14 15 16 16 17 17 18 18 18 20 21 24 28 31 36
31 31 32 32 32 33 33 33 33 33 32 31 31 30 29 29 30 30 30 30 30 29 29 28 27 27 26 25 24 23 22 20 19 18 17 17 17 17 16 16 15 14 13 12 10 8 7 6 6 7 8 9 9 10 11 13 14 15 15 16 16 17 17 17 18 19 21 23 25
31 31 32 32 32 32 32 32 32 32 31 30 28 27 27 27 28 28 29 29 28 28 28 28 28 28 27 26 26 25 25 24 22 20 19 17 16 16 15 15 15 15 15 15 14 13 12 11 10 9 7 6 6 5 7 8 10 11 12 13 13 14 14 15 16 17 18 19 20
31 32 32 32 32 32 32 31 31 30 28 27 26 26 25 26 26 26 26 26 26 25 25 26 26 26 25 25 25 25 26 26 25 24 22 21 19 17 16 15 15 14 14 14 13 13 13 13 13 12 11 10 9 7 6 5 5 6 7 7 8 9 9 10 11 12 14 16 18
31 31 31 31 32 32 31 30 29 28 27 26 25 25 25 24 24 24 24 24 24 23 23 24 24 23 23 23 23 24 24 25 26 26 25 24 22 21 20 19 18 17 16 16 15 14 14 13 13 12 12 11 11 10 9 8 6 5 4 3 3 3 4 5 6 7 8 10 13
30 30 30 30 30 30 29 29 28 27 27 26 26 25 25 24 23 23 22 22 23 23 23 22 22 22 22 22 22 22 23 24 25 25 25 24 23 23 22 22 22 21 20 20 19 18 17 17 15 14 13 13 12 11 11 10 9 7 6 5 4 2 1 0 1 2 3 4 6
29 28 28 28 28 28 27 27 27 27 27 27 27 26 25 25 24 23 22 22 22 22 22 22 22 21 21 21 21 21 22 23 23 23 23 23 22 22 22 22 23 23 23 22 22 22 21 21 20 19 18 16 15 14 13 12 11 9 8 7 6 5 5 4 3 3 2 2 2
27 27 27 27 26 26 26 26 26 26 26 26 26 26 25 24 23 23 23 22 22 21 22 22 22 21 20 19 19 20 20 22 22 22 22 22 22 21 21 21 21 20 20 21 21 22 22 23 23 22 22 21 20 19 18 16 15 13 11 10 9 8 8 7 7 6 6 5 5
26 26 25 25 25 25 25 24 24 24 25 25 26 26 25 24 23 23 23 22 21 21 21 22 22 21 20 18 18 19 20 20 21 22 22 22 22 22 21 20 19 18 18 17 18 19 20 21 22 22 23 23 23 22 22 21 20 18 17 15 14 13 12 12 11 10 10 9 9
25 25 24 24 24 23 23 23 23 23 24 24 25 25 25 24 24 24 23 22 21 21 21 22 23 23 22 21 21 20 20 20 21 21 22 23 23 23 22 21 20 19 18 18 18 18 18 18 19 20 21 21 22 22 22 22 22 22 21 21 20 20 19 18 17 16 15 14 13
25 24 24 23 23 23 23 23 23 23 23 24 24 24 24 24 24 23 22 22 22 22 22 22 23 24 24 23 23 22 21 21 21 22 22 23 23 23 23 23 23 22 22 22 22 21 20 19 18 18 19 19 19 20 20 21 21 22 22 23 23 23 23 23 22 22 21 20 18
24 24 23 23 22 22 22 23 23 23 24 24 24 24 24 23 23 22 22 22 22 22 22 22 22 23 23 23 23 23 22 22 22 22 23 23 23 24 24 24 24 24 24 24 24 24 23 22 21 20 20 19 19 19 19 19 19 19 20 21 22 23 24 25 25 25 25 25 24
24 24 23 23 23 22 22 23 23 23 24 24 24 23 23 23 23 23 22 22 22 22 22 22 22 23 23 23 23 23 23 23 23 23 23 24 24 24 24 24 24 25 25 25 24 24 24 23 23 22 22 21 20 20 19 19 18 18 18 18 19 20 21 23 24 25 26 26 27
24 23 23 23 23 23 23 23 23 23 23 23 24 24 24 24 24 23 23 23 23 23 23 23 23 24 24 24 24 24 25 25 25 24 24 24 24 24 24 25 25 25 25 24 24 24 23 23 23 23 23 23 22 21 21 20 20 20 19 18 18 18 19 20 21 22 23 24 25
23 23 23 23 23 23 23 23 23 23 23 23 24 24 24 24 24 24 24 24 24 24 24 25 25 25 25 25 25 26 26 26 26 26 25 25 25 25 25 25 25 25 25 24 24 24 24 23 23 23 23 23 23 22 22 21 21 21 20 20 19 19 19 19 19 20 20 21 22
23 23 23 23 23 23 23 23 23 23 24 24 24 24 24 24 24 24 24 24 25 25 26 26 26 26 26 26 26 26 26 26 26 26 26 26 26 26 26 26 25 25 25 24 24 24 24 24 24 23 23 23 23 23 22 22 22 21 21 21 21 20 20 20 20 20 20 20 20
23 23 23 23 24 24 24 24 24 24 24 24 24 23 23 24 24 24 24 25 25 26 27 27 27 27 27 27 27 27 27 26 26 26 26 26 26 26 26 26 26 25 25 25 25 25 24 24 24 24 23 23 23 23 23 22 22 22 22 22 21 21 21 21 21 21 21 20 20
24 24 24 24 24 25 25 25 25 25 24 24 24 24 24 24 24 25 25 25 26 27 27 27 27 27 27 27 27 27 27 27 27 27 27 27 27 27 27 26 26 26 25 25 25 25 25 25 24 24 24 23 23 23 23 23 23 22 22 22 22 22 22 21 21 21 21 21 21
25 25 26 26 26 26 26 26 26 26 25 25 25 25 25 25 26 26 26 26 27 27 27 27 27 28 28 28 28 28 28 28 28 28 28 28 28 28 27 27 27 27 26 26 26 26 26 26 25 25 24 24 24 24 24 24 24 23 23 23 23 22 22 22 22 22 22 22 21
26 27 27 27 27 27 27 27 27 27 27 26 26 26 27 27 27 27 27 27 27 28 28 28 29 29 29 29 29 29 29 29 30 30 30 30 30 29 29 28 28 28 28 28 28 28 27 27 27 26 26 25 25 26 26 26 25 25 24 24 24 23 23 23 22 22 22 22 22
27 27 28 28 28 28 28 28 28 28 27 27 27 27 28 28 28 28 28 28 29 29 30 30 30 30 30 30 31 31 31 31 31 31 32 31 31 30 30 30 30 29 29 29 29 29 29 29 28 28 27 27 27 27 27 27 27 26 26 25 25 24 24 23 23 22 22 22 22
28 28 28 28 28 28 28 28 28 28 28 28 28 28 28 28 28 29 29 29 30 30 30 31 31 31 31 32 32 32 32 32 33 33 33 32 32 31 30 30 31 31 30 30 30 30 30 30 29 29 28 28 28 28 29 28 27 27 26 26 26 25 25 24 23 23 22 22 22
28 28 28 28 28 28 28 28 28 28 27 27 27 27 28 28 28 29 29 29 30 30 30 31 31 32 32 32 32 32 32 32 33 33 33 32 32 30 29 29 30 30 30 30 30 30 29 29 29 29 29 29 29 29 29 28 27 26 26 25 25 25 25 25 24 24 23 23 22
28 28 29 29 29 28 28 28 28 28 27 27 27 27 27 27 28 28 28 29 29 29 30 30 31 31 31 31 31 31 31 31 31 32 32 32 31 29 28 27 27 28 29 29 29 29 28 28 28 28 29 29 30 29 28 27 26 25 25 25 24 24 24 24 24 24 24 24 23
28 29 29 29 29 29 28 28 28 28 28 28 28 28 27 27 27 28 28 29 29 29 29 30 30 30 30 30 29 28 28 29 29 29 30 29 29 27 26 24 24 25 26 27 27 27 27 26 26 26 27 29 29 28 27 26 25 24 24 24 23 23 23 23 23 23 23 24 23
28 28 29 29 29 29 28 28 28 28 28 28 28 28 28 28 28 28 28 29 29 29 29 29 29 29 29 29 27 26 26 26 27 27 27 26 26 25 23 22 21 22 23 24 25 25 24 24 24 24 25 27 27 26 24 24 23 23 23 23 23 23 22 22 23 23 22 22 23
28 28 28 28 28 28 28 28 28 28 28 28 28 28 28 28 28 28 28 29 28 28 29 29 29 29 28 28 27 26 26 26 27 27 27 26 25 24 23 22 21 22 23 24 24 24 23 23 24 25 25 25 25 23 21 21 20 20 21 21 21 22 22 22 22 22 22 22 22
27 27 28 28 28 28 28 28 28 28 28 28 28 28 28 28 28 28 28 28 28 28 27 27 27 27 27 27 27 26 26 26 27 27 27 26 26 25 25 24 24 24 25 25 25 25 25 25 25 26 27 27 25 23 21 21 20 20 20 20 20 20 21 21 21 21 21 21 21
26 26 26 27 27 27 27 27 27 27 27 27 27 27 27 26 26 26 25 25 25 24 24 24 24 24 24 24 24 24 24 24 24 24 24 25 25 25 25 25 25 26 26 25 25 25 25 26 26 27 28 28 27 26 25 25 24 23 23 23 23 23 22 22 21 20 20 20 20
Wind_Direction
248 250 252 254 256 257 258 259 262 262 260 257 256 251 245 241 241 244 246 248 251 250 245 239 240 239 237 236 235 233 233 233 235 237 238 239 240 242 243 244 245 246 246 246 246 245 244 243 242 241 241 240 241 241 241 240 238 237 237 237 237 237 237 236 236 236 235 234 233
247 248 249 250 251 250 249 248 249 251 252 252 251 249 244 239 237 238 241 245 249 250 244 236 234 232 230 229 231 234 237 239 241 242 242 244 247 249 250 250 249 248 247 246 245 243 243 243 244 243 242 240 240 240 241 241 240 239 238 238 238 238 238 237 237 237 237 237 237
223 229 231 234 235 235 235 235 237 240 242 243 242 240 235 232 232 235 241 247 251 252 247 239 237 237 238 236 236 237 239 241 243 244 244 246 249 253 255 256 255 254 252 250 248 246 244 243 243 242 241 241 240 240 241 241 241 241 240 240 240 240 240 240 239 239 239 238 238
124 155 179 189 197 202 207 212 219 226 231 235 235 232 229 228 231 236 242 248 251 251 247 241 239 240 243 244 245 244 244 244 244 244 244 244 245 248 250 253 255 255 254 252 250 249 247 244 242 240 240 241 242 243 243 244 244 244 244 245 245 244 244 244 244 243 241 240 240
108 116 128 140 154 163 171 180 191 204 216 224 228 229 230 232 234 237 240 243 245 245 243 240 239 240 243 245 246 247 246 244 242 242 242 243 243 242 242 242 244 248 250 251 251 251 249 247 244 242 240 241 245 248 250 250 250 249 250 250 249 248 248 248 247 245 243 242 240
98 101 106 114 125 134 140 142 151 172 194 212 222 229 233 233 229 226 224 224 230 234 236 235 234 236 239 241 241 241 240 237 235 234 236 239 241 241 240 238 237 238 240 244 246 249 250 250 247 244 242 242 245 249 252 253 253 253 252 251 251 250 249 248 247 246 245 243 240
92 94 98 102 107 114 118 119 122 137 162 182 191 194 193 189 175 153 143 171 211 225 228 229 230 231 233 233 232 232 232 231 230 229 230 232 235 238 239 240 240 240 240 240 240 242 245 248 248 245 243 242 243 245 247 249 249 250 250 249 250 249 248 246 246 244 243 241 239
87 87 88 89 93 95 98 104 108 110 113 118 116 110 104 101 98 96 96 99 93 98 129 179 215 226 228 228 227 229 231 233 233 232 230 229 231 233 236 239 240 241 241 241 239 237 235 235 237 239 240 240 240 241 242 242 243 244 244 244 245 245 244 243 241 240 239 238 236
77 77 77 78 79 80 82 87 91 92 92 92 91 89 85 81 81 82 83 82 79 79 81 83 86 93 114 162 212 228 233 234 234 233 232 230 230 231 234 237 240 240 239 237 236 237 235 231 226 224 227 232 236 239 240 240 239 239 239 238 238 238 237 236 235 234 234 234 233
66 67 68 68 69 70 72 75 78 80 80 75 72 70 68 66 67 69 71 72 74 76 77 76 75 76 77 78 80 90 127 177 195 208 217 224 228 229 231 234 237 239 239 237 236 236 236 233 229 226 225 223 225 229 233 235 237 238 237 236 235 233 232 232 231 232 233 234 234
59 60 60 61 61 62 64 66 68 69 68 64 59 55 53 53 53 55 58 61 64 66 67 68 68 68 69 69 68 69 70 75 82 94 113 149 192 212 221 226 231 235 237 237 237 236 234 233 232 232 231 229 226 223 222 224 227 231 234 236 236 236 236 237 237 237 238 238 238
55 55 56 56 56 57 57 58 58 57 57 55 52 48 46 45 45 46 48 50 51 53 54 55 56 57 59 59 57 56 58 61 66 72 77 82 87 98 125 172 198 212 221 227 230 230 230 229 231 233 235 234 231 227 224 223 221 220 221 224 229 234 237 240 241 242 242 242 242
53 52 52 52 52 52 53 52 51 50 50 49 48 46 44 42 41 40 40 41 41 41 42 43 44 45 45 44 42 40 41 45 52 59 66 69 72 75 80 85 91 99 116 146 179 201 209 215 219 222 224 225 224 223 222 223 223 222 221 220 220 220 222 226 230 233 236 238 241
51 50 49 48 48 48 49 49 48 47 46 46 47 46 44 42 40 38 37 36 35 34 34 35 36 37 36 34 32 30 29 30 34 41 49 56 60 64 67 69 71 73 74 76 77 84 100 127 161 180 190 198 202 207 213 216 219 218 217 217 218 219 219 218 219 221 223 226 231
48 47 45 44 43 44 45 46 46 45 45 46 47 47 46 44 41 38 36 35 33 32 32 32 32 32 32 30 28 25 24 23 23 25 30 37 43 47 50 53 56 58 58 58 58 59 61 66 74 84 95 109 128 158 183 195 198 201 205 208 210 212 214 217 219 219 219 219 219
47 45 42 40 40 40 41 42 43 44 45 46 47 48 47 45 43 40 38 37 35 34 33 32 32 32 31 29 27 25 23 21 19 19 20 22 24 26 27 30 33 35 37 38 40 41 42 44 47 51 56 62 69 79 95 118 142 164 180 192 198 202 206 210 212 214 215 217 217
47 45 42 41 40 39 39 39 41 42 44 45 46 46 46 46 44 42 40 39 38 37 36 35 33 32 31 29 28 27 25 23 22 20 18 17 15 14 13 14 15 15 15 16 17 18 20 21 23 27 30 35 40 45 51 59 70 85 105 129 157 179 194 202 206 208 210 212 213
50 48 47 46 45 43 42 40 40 41 42 43 43 43 43 43 42 41 40 39 39 39 39 38 36 34 31 29 27 27 27 27 26 25 22 20 16 12 10 8 7 5 4 3 3 3 2 2 2 3 6 9 13 17 21 27 33 40 46 51 55 57 61 132 219 220 219 217 214
54 53 52 52 52 51 48 45 43 42 42 43 42 42 40 39 38 38 38 38 37 37 38 40 40 38 33 29 27 26 26 26 26 26 26 26 24 21 16 12 8 4 1 359 357 356 355 353 352 351 351 352 352 354 356 359 4 10 14 17 19 19 16 11 5 353 336 310 277
57 55 54 55 56 56 55 52 49 47 47 48 47 45 43 41 39 38 37 37 36 36 36 38 40 40 36 31 27 25 24 23 22 23 24 26 28 29 27 22 17 11 5 3 0 358 357 354 351 349 348 347 346 344 343 344 344 346 347 348 348 349 349 349 349 347 343 338 331
57 55 53 53 53 55 55 55 54 53 54 54 55 54 52 49 47 45 43 41 39 37 36 36 37 38 36 32 28 26 24 22 20 20 20 22 24 27 27 26 24 20 16 13 10 9 6 2 358 354 350 348 346 343 341 339 337 335 333 331 329 327 326 326 327 328 329 329 327
56 55 53 51 50 51 52 53 54 54 54 55 56 56 55 54 53 51 49 46 44 41 38 36 36 37 36 34 32 30 27 23 21 19 19 19 21 22 22 22 21 21 20 19 18 17 15 11 8 3 358 353 349 345 342 340 337 333 330 327 324 321 318 317 316 316 317 318 318
54 54 53 51 49 49 49 50 50 50 51 51 51 51 51 51 50 49 48 46 44 41 38 36 35 35 35 35 34 32 29 26 23 21 20 19 20 20 19 18 17 17 17 18 17 15 13 12 10 7 4 0 357 353 349 345 340 336 332 328 325 322 319 316 314 313 312 311 311
51 51 51 50 49 48 48 48 48 47 47 47 47 47 47 47 46 45 43 42 41 40 38 36 35 34 34 33 33 32 30 28 26 24 22 20 19 19 18 17 16 16 17 16 14 12 10 8 6 5 3 2 1 0 358 355 350 345 340 335 330 326 322 319 316 314 312 311 309
49 49 49 48 47 47 47 46 46 46 45 45 45 44 44 43 42 41 40 39 39 38 37 37 36 35 34 33 32 30 29 27 26 24 23 21 20 19 17 16 16 16 16 15 13 10 8 7 5 3 2 0 359 358 357 356 356 354 350 345 340 334 329 324 321 318 316 314 312
46 46 46 46 45 45 45 45 45 45 44 43 43 42 41 41 39 38 38 37 37 37 37 36 35 34 34 32 31 29 28 27 25 24 22 21 20 19 18 17 16 15 15 13 11 9 7 6 4 2 1 360 358 357 355 353 352 352 351 349 346 342 338 333 329 325 322 319 317
44 44 44 44 43 43 43 44 44 43 42 42 41 40 40 39 38 37 36 36 36 36 35 35 34 33 32 31 30 28 27 26 25 24 22 21 19 18 17 16 16 15 13 11 9 7 6 5 3 2 0 359 358 356 354 352 351 349 348 347 346 344 343 340 338 335 332 328 325
41 42 42 41 41 41 41 41 41 41 41 40 40 39 39 38 37 36 36 35 35 34 34 33 32 32 31 29 28 27 26 25 23 22 21 20 19 18 17 16 15 14 12 10 8 6 5 4 3 2 0 359 358 356 354 353 351 350 349 348 346 345 343 342 340 339 337 335 332
39 39 39 39 39 38 38 38 39 39 39 38 38 37 37 37 36 35 35 34 33 33 32 31 30 29 28 28 26 25 24 23 22 20 19 18 17 16 15 14 13 12 11 9 7 6 4 4 3 2 1 360 359 357 356 355 353 352 351 349 348 346 344 343 340 338 336 335 333
36 37 37 37 36 36 36 36 36 36 36 36 35 35 35 34 34 33 32 32 31 31 30 28 27 26 26 25 24 22 21 20 19 18 17 16 15 15 14 12 12 11 10 8 7 5 4 3 3 2 1 1 360 359 357 357 355 354 353 352 350 349 347 345 343 340 338 335 333
33 34 34 34 34 33 33 33 33 33 33 32 32 32 32 31 31 30 29 29 29 28 27 26 25 24 23 21 20 20 19 17 16 15 14 13 13 12 12 11 10 10 9 8 6 4 3 2 2 2 2 2 1 360 359 358 357 356 355 354 352 351 349 347 345 343 341 338 335
30 30 31 31 31 30 30 29 29 29 29 29 29 29 28 28 28 27 27 26 26 25 24 23 22 20 19 18 17 16 15 15 14 13 12 11 11 10 9 9 9 9 8 7 5 4 2 2 1 2 2 2 1 1 0 359 358 357 356 355 353 352 350 349 347 346 344 341 339
27 28 28 28 28 27 27 26 26 26 26 25 25 25 25 25 25 24 24 24 23 23 21 20 19 18 17 16 14 13 13 12 12 11 10 10 9 8 7 7 8 8 8 7 6 4 3 2 1 1 1 1 1 1 0 360 359 357 356 354 353 352 351 350 348 347 345 343 341
25 25 25 25 25 25 24 24 23 23 22 22 22 22 22 22 21 21 21 21 21 20 19 18 17 16 14 13 12 11 10 9 9 8 8 8 8 8 8 7 8 8 8 7 6 6 5 3 1 0 0 0 0 0 0 360 359 357 356 354 353 351 350 350 349 347 346 345 343
23 22 22 22 22 22 21 21 20 20 19 19 19 20 19 19 19 19 19 19 19 18 17 16 15 14 12 11 10 9 8 7 7 6 6 7 8 9 9 8 8 7 7 7 7 7 6 5 2 0 359 359 360 1 1 0 359 357 356 354 353 352 350 349 348 347 346 345 344
20 20 20 19 19 19 18 18 17 17 16 16 16 16 16 16 16 16 16 16 16 15 15 14 13 12 11 10 9 8 7 6 4 4 4 5 7 9 10 9 8 6 5 6 6 7 7 6 3 0 358 358 359 0 1 1 359 357 356 355 354 352 350 349 348 346 345 344 344
18 17 17 16 16 16 15 15 14 14 13 13 13 13 13 13 13 13 13 13 13 12 12 11 10 10 9 9 8 7 5 4 2 2 3 4 6 9 11 10 8 6 5 5 6 7 8 7 4 1 358 358 359 360 0 359 358 357 356 354 353 352 350 348 347 345 344 343 343
15 15 14 13 13 12 12 11 11 10 10 10 10 10 10 9 9 9 10 10 9 9 9 8 8 7 6 6 5 5 3 1 360 0 2 3 5 8 10 9 7 5 4 4 6 8 9 7 6 3 1 360 1 1 0 359 358 356 355 353 351 350 348 346 345 344 342 341 341
12 12 11 10 10 9 8 8 7 7 6 6 6 6 6 6 6 6 6 6 5 5 5 5 5 4 3 2 1 1 359 357 356 356 358 360 1 2 3 3 2 1 0 1 4 6 7 7 5 4 3 3 5 5 2 360 359 357 355 352 350 348 345 344 343 342 341 341 341
9 9 8 7 7 6 5 4 4 4 4 3 3 3 3 3 2 2 2 2 1 1 1 1 1 0 359 358 356 355 354 353 351 350 350 350 350 350 349 350 350 350 351 352 355 357 359 360 360 360 360 0 3 3 1 358 357 356 354 351 349 346 344 343 342 342 341 341 341
6 6 5 5 4 3 2 1 1 1 1 1 0 360 359 359 358 357 357 357 357 357 357 357 357 356 355 353 352 351 349 348 346 345 343 340 338 337 336 336 336 337 339 341 343 345 346 348 349 349 350 351 353 353 352 351 351 351 350 348 346 344 343 342 342 341 341 340 340
Height
1419 1419 1419 1419 1419 1419 1419 1420 1420 1420 1420 1420 1419 1418 1418 1419 1419 1420 1419 1418 1417 1417 1417 1418 1419 1419 1419 1419 1419 1419 1419 1420 1420 1421 1422 1422 1423 1424 1424 1424 1425 1425 1425 1426 1426 1427 1427 1428 1429 1429 1430 1430 1430 1431 1431 1432 1432 1433 1434 1434 1434 1435 1436 1437 1436 1436 1437 1437 1438
1418 1418 1418 1418 1418 1418 1418 1419 1419 1419 1419 1419 1419 1418 1418 1419 1419 1419 1418 1417 1417 1416 1416 1417 1416 1415 1415 1415 1416 1417 1418 1418 1419 1419 1420 1420 1422 1422 1422 1422 1423 1423 1423 1424 1424 1424 1424 1425 1425 1426 1426 1427 1427 1427 1428 1428 1429 1430 1431 1431 1432 1432 1433 1434 1434 1434 1434 1435 1436
1418 1417 1417 1417 1417 1417 1417 1417 1417 1417 1417 1418 1418 1418 1418 1418 1417 1417 1417 1416 1416 1415 1416 1416 1414 1414 1414 1414 1415 1415 1416 1416 1417 1417 1417 1418 1419 1420 1420 1421 1421 1421 1422 1422 1421 1422 1422 1422 1423 1423 1423 1423 1424 1424 1424 1425 1426 1427 1427 1427 1428 1429 1430 1430 1430 1431 1432 1432 1433
1417 1417 1416 1416 1416 1416 1416 1416 1416 1416 1417 1417 1417 1417 1417 1417 1416 1416 1415 1415 1414 1414 1414 1414 1412 1412 1413 1413 1414 1414 1415 1415 1415 1416 1416 1417 1417 1418 1418 1419 1419 1419 1419 1419 1419 1419 1419 1420 1420 1420 1420 1420 1420 1421 1421 1422 1422 1423 1423 1423 1424 1425 1425 1426 1426 1427 1428 1429 1429
1417 1417 1416 1416 1415 1415 1415 1415 1415 1415 1416 1416 1416 1416 1416 1415 1415 1415 1414 1414 1414 1413 1413 1412 1412 1412 1412 1412 1413 1414 1414 1414 1415 1415 1416 1416 1416 1416 1416 1416 1417 1417 1417 1417 1417 1417 1417 1417 1417 1417 1417 1417 1417 1417 1417 1418 1419 1419 1419 1420 1420 1421 1421 1421 1422 1422 1423 1424 1425
1417 1417 1417 1416 1415 1415 1414 1414 1415 1415 1415 1415 1415 1415 1415 1415 1415 1415 1414 1414 1413 1412 1412 1411 1411 1411 1411 1412 1412 1413 1413 1413 1413 1414 1415 1415 1415 1414 1414 1413 1413 1413 1413 1414 1414 1414 1414 1414 1414 1414 1415 1415 1414 1414 1414 1415 1415 1416 1416 1417 1417 1417 1417 1417 1418 1418 1419 1420 1422
1419 1418 1417 1417 1416 1415 1414 1414 1414 1414 1414 1414 1414 1415 1415 1416 1416 1415 1414 1413 1412 1412 1411 1411 1410 1410 1411 1411 1411 1412 1412 1412 1412 1412 1413 1413 1412 1412 1412 1412 1412 1412 1411 1411 1411 1411 1411 1412 1412 1413 1413 1413 1412 1412 1412 1413 1413 1413 1413 1413 1413 1414 1414 1414 1415 1415 1416 1417 1419
1420 1419 1419 1418 1417 1416 1415 1414 1414 1414 1415 1414 1415 1415 1416 1416 1416 1415 1413 1412 1412 1411 1411 1410 1410 1410 1410 1410 1410 1410 1411 1411 1412 1411 1411 1411 1410 1410 1410 1410 1410 1410 1410 1410 1410 1409 1409 1410 1411 1412 1412 1412 1411 1411 1411 1411 1411 1411 1411 1411 1411 1411 1411 1412 1412 1413 1414 1415 1416
1420 1420 1419 1419 1418 1417 1416 1416 1415 1415 1416 1416 1416 1417 1417 1416 1415 1413 1412 1412 1411 1411 1410 1410 1410 1410 1410 1410 1410 1410 1411 1411 1410 1410 1409 1409 1409 1408 1408 1409 1409 1409 1408 1408 1408 1408 1408 1408 1407 1407 1408 1410 1410 1410 1410 1410 1410 1410 1410 1410 1410 1410 1410 1410 1411 1411 1412 1413 1414
1422 1421 1420 1419 1418 1417 1417 1416 1416 1416 1417 1417 1417 1417 1417 1416 1414 1413 1412 1412 1411 1410 1410 1410 1410 1410 1410 1410 1410 1411 1411 1410 1409 1408 1408 1408 1407 1407 1407 1407 1407 1407 1407 1407 1407 1407 1407 1407 1406 1406 1406 1406 1407 1408 1408 1409 1410 1410 1410 1410 1410 1410 1410 1410 1410 1411 1412 1412 1413
1423 1422 1421 1420 1419 1418 1417 1417 1417 1417 1418 1418 1417 1417 1416 1415 1415 1414 1413 1412 1411 1410 1410 1410 1410 1410 1410 1410 1410 1411 1410 1409 1408 1407 1407 1407 1407 1406 1406 1406 1406 1406 1406 1406 1406 1406 1406 1405 1405 1405 1405 1405 1405 1405 1406 1407 1408 1409 1410 1410 1411 1411 1411 1410 1411 1411 1411 1411 1412
1425 1424 1422 1421 1420 1419 1418 1418 1418 1418 1418 1418 1417 1417 1416 1416 1415 1414 1413 1412 1411 1411 1411 1411 1410 1410 1410 1410 1410 1410 1410 1409 1408 1407 1407 1407 1406 1406 1405 1405 1405 1405 1405 1405 1405 1405 1405 1404 1404 1404 1404 1404 1405 1405 1405 1405 1406 1406 1407 1408 1409 1410 1411 1411 1411 1411 1411 1411 1411
1426 1425 1424 1422 1421 1420 1420 1419 1419 1419 1419 1418 1417 1417 1417 1416 1416 1414 1413 1412 1412 1412 1412 1412 1411 1410 1410 1410 1410 1410 1410 1409 1409 1408 1407 1406 1406 1405 1405 1405 1404 1404 1404 1404 1404 1404 1404 1403 1403 1403 1403 1403 1404 1404 1404 1405 1405 1405 1405 1405 1405 1406 1407 1408 1409 1410 1411 1411 1411
1427 1426 1424 1423 1422 1421 1421 1420 1420 1420 1419 1419 1419 1418 1418 1417 1417 1415 1414 1413 1413 1413 1413 1412 1412 1411 1411 1411 1411 1411 1410 1409 1408 1407 1407 1406 1406 1405 1405 1404 1404 1404 1404 1404 1404 1404 1403 1403 1402 1402 1402 1402 1403 1403 1403 1403 1404 1404 1404 1405 1405 1405 1405 1405 1406 1406 1407 1409 1410
1427 1426 1425 1424 1423 1422 1421 1421 1421 1421 1421 1421 1421 1420 1419 1419 1418 1417 1416 1416 1415 1415 1414 1414 1413 1412 1412 1412 1412 1411 1410 1409 1408 1407 1406 1406 1405 1405 1405 1405 1404 1404 1404 1404 1404 1404 1403 1403 1402 1402 1402 1402 1402 1402 1402 1402 1403 1403 1403 1403 1404 1404 1404 1405 1405 1405 1405 1405 1406
1428 1427 1425 1424 1423 1422 1422 1422 1423 1423 1424 1424 1423 1422 1421 1420 1419 1419 1418 1417 1417 1417 1416 1415 1414 1414 1414 1414 1413 1412 1411 1410 1408 1407 1406 1406 1405 1405 1405 1404 1404 1404 1404 1404 1404 1404 1403 1403 1403 1402 1402 1402 1402 1402 1402 1402 1402 1402 1402 1402 1402 1403 1403 1403 1404 1404 1404 1404 1404
1429 1428 1427 1426 1425 1424 1424 1425 1426 1426 1426 1425 1424 1423 1422 1421 1421 1420 1420 1420 1419 1418 1417 1416 1416 1416 1415 1415 1414 1414 1413 1411 1410 1408 1407 1406 1406 1405 1405 1404 1404 1404 1404 1403 1404 1403 1403 1403 1403 1402 1402 1402 1402 1402 1402 1402 1401 1401 1401 1402 1402 1402 1402 1402 1403 1403 1403 1403 1403
1431 1431 1430 1429 1428 1428 1428 1428 1428 1427 1426 1426 1424 1423 1422 1422 1422 1422 1422 1421 1421 1420 1419 1418 1417 1417 1417 1416 1416 1415 1414 1413 1412 1411 1409 1408 1407 1407 1406 1405 1404 1404 1404 1404 1404 1403 1403 1403 1402 1402 1402 1402 1402 1401 1401 1401 1401 1401 1401 1401 1401 1401 1402 1402 1402 1402 1402 1402 1402
1434 1434 1433 1432 1432 1431 1431 1430 1429 1428 1427 1426 1425 1424 1423 1422 1422 1422 1422 1421 1421 1420 1420 1420 1419 1419 1418 1417 1417 1416 1415 1414 1413 1412 1412 1411 1410 1408 1407 1406 1406 1405 1405 1405 1404 1403 1403 1403 1402 1402 1402 1401 1401 1401 1401 1400 1400 1400 1400 1400 1401 1401 1401 1402 1402 1402 1402 1402 1402
1436 1436 1436 1435 1435 1434 1433 1432 1432 1431 1429 1428 1426 1425 1424 1424 1423 1423 1422 1422 1422 1422 1422 1422 1421 1420 1420 1419 1418 1417 1416 1415 1415 1414 1413 1412 1412 1410 1409 1408 1408 1407 1407 1406 1405 1404 1404 1403 1402 1402 1401 1401 1400 1400 1400 1399 1399 1399 1399 1400 1400 1401 1401 1401 1401 1401 1401 1401 1401
1437 1437 1437 1437 1437 1436 1435 1434 1434 1433 1432 1431 1429 1428 1427 1426 1426 1425 1424 1424 1424 1424 1424 1423 1422 1421 1420 1419 1418 1418 1417 1417 1416 1415 1414 1413 1412 1411 1411 1410 1410 1409 1408 1407 1407 1406 1406 1405 1404 1403 1402 1401 1400 1400 1399 1399 1398 1398 1399 1399 1399 1400 1400 1400 1401 1401 1401 1401 1401
1439 1439 1438 1438 1438 1437 1437 1436 1435 1434 1433 1432 1431 1430 1429 1428 1428 1427 1427 1426 1426 1426 1425 1424 1423 1422 1421 1420 1419 1418 1417 1417 1417 1416 1415 1414 1413 1412 1412 1411 1410 1410 1409 1409 1408 1407 1407 1407 1406 1405 1404 1403 1402 1401 1400 1399 1399 1399 1399 1399 1399 1399 1399 1400 1400 1400 1400 1400 1400
1441 1440 1440 1439 1439 1438 1437 1437 1436 1435 1434 1432 1432 1431 1430 1429 1429 1428 1428 1427 1427 1426 1425 1424 1423 1422 1421 1420 1419 1419 1418 1418 1417 1416 1415 1414 1413 1412 1412 1411 1410 1410 1409 1408 1408 1408 1408 1407 1407 1407 1405 1404 1403 1402 1401 1400 1400 1400 1400 1400 1400 1399 1399 1399 1399 1399 1399 1399 1399
1442 1442 1441 1440 1440 1439 1438 1437 1437 1435 1434 1433 1432 1432 1431 1430 1430 1429 1428 1427 1427 1426 1425 1425 1424 1423 1422 1421 1420 1420 1419 1418 1417 1417 1416 1415 1414 1413 1412 1412 1411 1410 1409 1408 1408 1408 1408 1407 1407 1406 1406 1405 1404 1403 1403 1402 1402 1402 1402 1401 1401 1400 1400 1399 1399 1399 1399 1398 1398
1443 1442 1442 1441 1441 1440 1439 1438 1437 1436 1435 1434 1433 1432 1432 1431 1430 1429 1428 1428 1427 1427 1426 1426 1425 1424 1423 1422 1421 1420 1419 1418 1418 1417 1416 1415 1415 1414 1413 1412 1411 1410 1410 1409 1409 1409 1408 1408 1407 1406 1406 1405 1404 1404 1404 1403 1403 1403 1403 1402 1402 1401 1400 1400 1399 1399 1398 1398 1398
1444 1443 1442 1442 1441 1440 1439 1438 1437 1436 1436 1435 1434 1433 1432 1431 1430 1429 1429 1428 1427 1427 1427 1426 1425 1424 1423 1422 1422 1421 1420 1419 1418 1417 1417 1416 1415 1414 1413 1413 1412 1411 1411 1410 1410 1409 1409 1408 1407 1407 1406 1405 1405 1404 1404 1403 1403 1403 1403 1402 1402 1402 1401 1400 1400 1399 1398 1398 1397
1445 1444 1443 1442 1442 1441 1440 1439 1438 1437 1436 1435 1434 1433 1432 1431 1431 1430 1429 1429 1428 1427 1427 1426 1425 1424 1423 1422 1422 1421 1420 1419 1418 1418 1417 1416 1415 1415 1414 1413 1412 1412 1412 1411 1411 1410 1409 1409 1408 1407 1407 1406 1405 1404 1404 1404 1403 1403 1402 1402 1402 1401 1401 1400 1400 1399 1399 1398 1397
1445 1444 1444 1443 1442 1441 1440 1439 1438 1437 1436 1435 1434 1434 1433 1432 1432 1431 1430 1429 1428 1427 1427 1426 1425 1424 1423 1422 1422 1421 1420 1420 1419 1418 1417 1417 1416 1415 1415 1414 1413 1413 1412 1412 1411 1410 1409 1409 1408 1407 1407 1406 1405 1405 1404 1404 1403 1403 1402 1402 1401 1401 1400 1400 1400 1399 1399 1398 1397
1446 1445 1444 1443 1442 1441 1440 1439 1438 1437 1437 1436 1435 1434 1434 1433 1432 1431 1431 1430 1429 1427 1427 1426 1425 1424 1423 1423 1422 1422 1421 1420 1419 1419 1418 1417 1417 1416 1415 1414 1414 1413 1412 1412 1411 1410 1410 1409 1408 1408 1407 1407 1406 1405 1404 1404 1403 1403 1402 1402 1401 1401 1400 1400 1399 1399 1398 1398 1397
1446 1445 1444 1443 1442 1442 1441 1440 1439 1438 1437 1437 1436 1435 1434 1433 1432 1432 1431 1430 1429 1428 1427 1426 1426 1425 1424 1423 1422 1422 1421 1420 1420 1419 1418 1417 1417 1416 1415 1415 1414 1413 1412 1412 1411 1410 1410 1409 1408 1408 1407 1407 1406 1405 1405 1404 1403 1403 1402 1402 1401 1400 1400 1399 1399 1398 1398 1397 1397
1446 1445 1444 1443 1442 1442 1441 1440 1439 1438 1437 1437 1436 1435 1434 1433 1432 1432 1431 1430 1429 1428 1428 1427 1426 1425 1424 1424 1423 1422 1422 1421 1420 1419 1418 1417 1417 1416 1416 1415 1414 1413 1412 1412 1411 1410 1410 1409 1408 1408 1407 1407 1406 1405 1405 1404 1403 1403 1402 1402 1401 1400 1400 1399 1399 1398 1397 1397 1396
1446 1445 1444 1443 1442 1442 1441 1440 1439 1438 1437 1437 1436 1435 1434 1433 1432 1432 1431 1430 1429 1428 1427 1427 1426 1425 1424 1424 1423 1422 1422 1421 1420 1419 1418 1417 1417 1416 1415 1415 1414 1413 1412 1412 1411 1410 1409 1408 1408 1407 1407 1406 1406 1405 1404 1404 1403 1402 1402 1402 1401 1400 1400 1399 1398 1398 1397 1397 1396
1446 1445 1444 1443 1442 1442 1441 1440 1439 1438 1437 1437 1436 1435 1434 1433 1432 1432 1431 1430 1429 1428 1427 1427 1426 1425 1424 1423 1422 1422 1421 1420 1420 1419 1418 1417 1417 1416 1415 1414 1413 1412 1412 1411 1410 1409 1408 1407 1407 1407 1406 1406 1405 1404 1404 1403 1402 1402 1402 1401 1401 1400 1400 1399 1398 1398 1397 1397 1396
1447 1445 1444 1443 1442 1442 1441 1440 1439 1438 1438 1437 1436 1435 1434 1433 1432 1432 1431 1430 1429 1428 1427 1427 1426 1425 1424 1423 1422 1421 1421 1420 1419 1418 1418 1417 1416 1415 1414 1413 1412 1412 1412 1411 1410 1409 1408 1407 1406 1406 1405 1405 1404 1404 1403 1402 1402 1401 1401 1400 1400 1399 1399 1398 1398 1397 1397 1397 1396
1447 1446 1445 1444 1443 1442 1441 1441 1440 1439 1438 1437 1437 1436 1435 1434 1433 1432 1431 1430 1429 1429 1428 1427 1426 1425 1424 1423 1422 1421 1420 1419 1418 1418 1417 1417 1416 1415 1414 1413 1412 1412 1411 1411 1410 1409 1408 1407 1406 1405 1404 1404 1403 1403 1402 1402 1401 1401 1400 1399 1399 1398 1398 1397 1397 1397 1397 1396 1396
1447 1446 1445 1444 1443 1442 1442 1441 1440 1439 1438 1437 1437 1436 1435 1434 1433 1432 1432 1431 1430 1429 1428 1427 1426 1425 1424 1423 1422 1421 1420 1420 1419 1418 1417 1417 1416 1415 1414 1414 1413 1412 1411 1411 1410 1409 1408 1407 1406 1405 1404 1403 1402 1402 1402 1401 1401 1400 1399 1399 1398 1397 1397 1397 1396 1396 1395 1395 1395
1447 1446 1445 1444 1443 1443 1442 1441 1440 1440 1439 1438 1437 1436 1435 1434 1434 1433 1432 1431 1430 1429 1428 1427 1427 1426 1425 1424 1423 1422 1421 1420 1419 1418 1417 1417 1416 1415 1415 1414 1413 1412 1412 1411 1410 1409 1408 1408 1407 1405 1404 1402 1402 1401 1401 1401 1400 1399 1399 1398 1397 1397 1396 1396 1395 1395 1394 1394 1393
1447 1446 1445 1444 1444 1443 1442 1441 1440 1440 1439 1438 1437 1436 1435 1434 1433 1433 1432 1431 1430 1429 1428 1427 1427 1426 1425 1424 1424 1423 1422 1421 1420 1419 1418 1417 1417 1416 1416 1415 1414 1413 1412 1412 1411 1410 1409 1408 1407 1406 1404 1403 1402 1401 1401 1400 1400 1399 1398 1398 1397 1397 1396 1395 1394 1394 1393 1393 1392
1447 1447 1446 1445 1444 1443 1442 1441 1440 1439 1438 1437 1437 1436 1435 1434 1433 1432 1432 1431 1430 1429 1428 1428 1427 1426 1426 1425 1424 1424 1423 1422 1421 1420 1419 1418 1417 1417 1416 1416 1415 1414 1413 1412 1411 1410 1410 1409 1408 1407 1405 1403 1402 1401 1400 1400 1399 1399 1398 1397 1397 1396 1395 1395 1394 1393 1392 1392 1392
1448 1447 1446 1445 1444 1443 1442 1442 1440 1439 1438 1437 1437 1436 1435 1434 1433 1432 1432 1431 1431 1430 1429 1429 1428 1427 1427 1426 1426 1425 1424 1423 1422 1422 1421 1420 1419 1418 1417 1417 1416 1415 1414 1413 1412 1411 1410 1409 1408 1407 1405 1403 1402 1402 1401 1400 1399 1399 1398 1397 1397 1396 1395 1394 1393 1393 1392 1391 1391
1449 1448 1447 1446 1445 1444 1443 1442 1441 1440 1439 1438 1437 1436 1436 1435 1435 1434 1433 1433 1432 1432 1431 1431 1430 1430 1429 1428 1427 1427 1426 1425 1424 1423 1422 1422 1421 1420 1419 1418 1417 1416 1415 1414 1413 1412 1411 1410 1408 1407 1406 1404 1403 1402 1402 1401 1400 1399 1398 1397 1397 1396 1395 1394 1393 1392 1392 1391 1390